Location: Lawrence Hall of Science
(37.8785°N, 122.2415°W)
Time: 11:12:23
(UTC-07:00)

Cosmos 2151 - Visible Passes

Search period start: 18 April 2014 00:00
Search period end: 28 April 2014 00:00
Orbit: 587 x 608 km, 82.5° (Epoch: 17 April)

Date Brightness Start Highest point End Pass type
(mag) Time Alt. Az. Time Alt. Az. Time Alt. Az.
18 Apr 2.9 05:28:02 10° S 05:32:21 77° W 05:36:42 10° N visible
19 Apr 5.9 04:04:14 10° ESE 04:06:08 13° E 04:08:02 10° ENE visible
19 Apr 3.3 05:38:56 10° SSW 05:43:05 45° W 05:47:15 10° N visible
20 Apr 5.4 04:13:27 10° SE 04:16:38 21° E 04:19:50 10° NE visible
20 Apr 4.0 05:50:07 10° SW 05:53:51 28° WNW 05:57:36 10° NNW visible
21 Apr 4.6 04:23:39 12° SSE 04:27:12 33° E 04:31:04 10° NNE visible
22 Apr 3.6 04:34:49 19° SSE 04:37:47 54° E 04:42:00 10° NNE visible
23 Apr 2.9 04:45:56 25° S 04:48:26 89° W 04:52:46 10° N visible
24 Apr 5.9 03:21:10 10° E 03:22:15 11° E 03:23:19 10° ENE visible
24 Apr 3.2 04:56:58 27° SW 04:59:07 53° W 05:03:20 10° N visible
25 Apr 5.4 03:31:14 15° ESE 03:32:43 18° E 03:35:36 10° NE visible
25 Apr 3.8 05:07:58 23° WSW 05:09:51 32° WNW 05:13:44 10° NNW visible
26 Apr 4.7 03:42:12 25° ESE 03:43:14 28° E 03:46:55 10° NNE visible
26 Apr 4.5 05:18:55 16° WSW 05:20:38 20° WNW 05:23:52 10° NNW visible
27 Apr 3.8 03:53:06 42° ESE 03:53:48 46° E 03:57:55 10° NNE visible
27 Apr 5.0 05:29:50 11° W 05:31:28 13° WNW 05:33:27 10° NW visible
